(3) Juno
ephemeris date magn radius delta ra dec elong phase
Today16 Sep 202511.53.320 AU3.652 AU15h43m-07°47'63.1°15.7°
Opposition26 Jul 20269.12.800 AU1.806 AU20h09m-04°57'165.2°5.3°
(3) Juno - 2025-09-16
astro.vanbuitenen.nl


 
-1 year
-1 month
-1 day
Now
+1 day
+1 month
+1 year

The interactive orbit chart above shows the body's path through the solar system and its position at the given date. Green and blue lines are shown perpendicular to the ecliptic plane: Green if the path is above the ecliptic plane, blue if it is below. (Left-click and drag to rotate the view; Right-click and drag to move the view; Use scroll wheel to zoom in our out.)

The orbital elements of Juno are:

            e (Eccentricity)                : 0.2559473
            a (Semimajor axis)              : 2.6706696
            i (Inclination)                 : 12.98651
            Ω (Longitude of ascending node) : 169.82992
            ω (Argument of perihelion)      : 247.85974
            M (Mean anomaly)                : 172.45499
            Epoch                           : 2025 May 05

            L (Longitude of perihelion)     : 237.16663
            B (Latitude of perihelion)      : -12.01405
            P (Orbital period in years)     : 4.36            
        

The light curve chart below shows the estimated development of the minor planet's magnitude.


The all-sky chart below shows the path of the minor planet over the same period as the light curve. The current position is marked yellow.





The following chart shows the path of the minor planet in the next few days. The field of view is optimized for (~10x50) binoculars and finderscopes. A more printer-friendly version of the same chart can be found below.




Ephemerides:
Date       Time       RA (2000)    DEC (2000)    delta   radius  elong  phase   PA    magn
2025-09-16 00:00 UT   15 43 49.9   -07 47 15     3.652    3.320   63.1   15.7    97   11.5 
2025-09-16 02:50 UT   15 43 56.6   -07 47 54     3.653    3.320   63.0   15.7    97   11.5 
2025-09-17 00:00 UT   15 44 46.7   -07 52 46     3.664    3.320   62.4   15.6    97   11.5 
2025-09-18 00:00 UT   15 45 44.1   -07 58 17     3.676    3.319   61.7   15.5    97   11.5 
2025-09-19 00:00 UT   15 46 42.1   -08 03 46     3.687    3.318   61.0   15.4    96   11.5 
2025-09-20 00:00 UT   15 47 40.7   -08 09 15     3.699    3.317   60.3   15.2    96   11.5 
2025-09-21 00:00 UT   15 48 39.9   -08 14 42     3.710    3.317   59.6   15.1    96   11.5 
2025-09-22 00:00 UT   15 49 39.7   -08 20 08     3.722    3.316   58.9   15.0    96   11.5 
2025-09-23 00:00 UT   15 50 40.0   -08 25 33     3.733    3.315   58.2   14.9    95   11.5 
2025-09-24 00:00 UT   15 51 40.9   -08 30 57     3.744    3.315   57.5   14.8    95   11.5 
2025-09-25 00:00 UT   15 52 42.4   -08 36 19     3.755    3.314   56.8   14.7    95   11.5 
2025-09-26 00:00 UT   15 53 44.5   -08 41 40     3.766    3.313   56.1   14.5    95   11.5 
2025-09-27 00:00 UT   15 54 47.0   -08 46 60     3.777    3.312   55.4   14.4    94   11.5 
2025-09-28 00:00 UT   15 55 50.1   -08 52 18     3.788    3.312   54.7   14.3    94   11.5 
2025-09-29 00:00 UT   15 56 53.8   -08 57 34     3.798    3.311   54.0   14.2    94   11.5 
2025-09-30 00:00 UT   15 57 57.9   -09 02 49     3.809    3.310   53.4   14.0    93   11.5 
2025-10-01 00:00 UT   15 59 02.6   -09 08 02     3.819    3.309   52.7   13.9    93   11.5 
2025-10-02 00:00 UT   16 00 07.8   -09 13 13     3.830    3.309   52.0   13.8    93   11.5 
2025-10-03 00:00 UT   16 01 13.5   -09 18 22     3.840    3.308   51.3   13.7    93   11.5 
2025-10-04 00:00 UT   16 02 19.7   -09 23 30     3.850    3.307   50.6   13.5    92   11.5 
2025-10-05 00:00 UT   16 03 26.3   -09 28 35     3.860    3.306   50.0   13.4    92   11.5 
2025-10-06 00:00 UT   16 04 33.5   -09 33 39     3.870    3.305   49.3   13.3    92   11.5 
2025-10-07 00:00 UT   16 05 41.1   -09 38 41     3.879    3.305   48.6   13.1    91   11.5 
2025-10-08 00:00 UT   16 06 49.2   -09 43 40     3.889    3.304   47.9   13.0    91   11.5 
2025-10-09 00:00 UT   16 07 57.7   -09 48 37     3.898    3.303   47.3   12.8    91   11.5 
2025-10-10 00:00 UT   16 09 06.7   -09 53 33     3.908    3.302   46.6   12.7    90   11.5 
2025-10-11 00:00 UT   16 10 16.2   -09 58 26     3.917    3.301   45.9   12.5    90   11.5 
2025-10-12 00:00 UT   16 11 26.1   -10 03 17     3.926    3.300   45.3   12.4    90   11.5 
2025-10-13 00:00 UT   16 12 36.4   -10 08 05     3.935    3.300   44.6   12.3    89   11.5 
2025-10-14 00:00 UT   16 13 47.2   -10 12 52     3.944    3.299   43.9   12.1    89   11.5 
2025-10-15 00:00 UT   16 14 58.4   -10 17 35     3.952    3.298   43.3   12.0    89   11.5 
2025-10-16 00:00 UT   16 16 10.1   -10 22 17     3.961    3.297   42.6   11.8    88   11.5 


    Terminology:
            
    delta:  distance between minor planet and earth in AU
    radius: distance between minor planet and sun in AU
    magn:   magnitude (brightness) estimate    
    ra:     right ascension in hours (24h = 360deg)
    dec:    declination in degrees
    elong:  elongation in degrees (angle sun-earth-minor planet)    
    phase:  phase angle in degrees (angle sun-minor planet-earth)        
    AU:     Astronomical Unit (mean distance between earth and sun: 149597870.7 km
    

Orbital elements provided by the MPC (Minor Planet Center).
Calculations by a modified version of AAPlus, a C# implementation of the AA+ project by PJ Naughter from the algorithms presented in the book "Astronomical Algorithms" by Jean Meeus.
NGC2000 dso catalog and star labels from VizieR as provided by the Strasbourg astronomical Data Center.
Tycho2 catalog from the ESO archive.